カタログに戻る

STARLINK-4493

運用中通信VLEO
NORAD 53533·PAYLOAD·🇺🇸 United States

打ち上げ Aug 19, 2022 から Cape Canaveral Space Force Station

Loading…

次のパス (今後24時間)

TLE

最新Source: CelesTrak SupGP

元期: Sep 15, 2026, 02:19 UTC

1 53533C 22101G   26258.09701389 -.00001698  00000+0 -54592-4 0  2587
2 53533  53.1579 293.0319 0001298  86.0848  16.6214 15.31703611    11

AllMySatでSTARLINK-4493をリアルタイム追跡

Download on the App Store